Delaware, OH

10:51 PM EST on December 12, 2017 (GMT -0500)
Delaware Municipal

Weather History for KDLZ - October, 2013

Change the Weather History Date:

Tuesday, October 22, 2013

  Actual Average Record
Temperature  
Mean Temperature 41 °F -  
Max Temperature 50 °F 59 °F 83 °F (1953)
Min Temperature 32 °F 38 °F 20 °F (1974)
Degree Days  
Heating Degree Days 24    
Moisture  
Dew Point 30 °F    
Average Humidity 67    
Maximum Humidity 93    
Minimum Humidity 35    
Precipitation  
Precipitation 0.00 in - - ()
Sea Level Pressure  
Sea Level Pressure 29.95 in    
Wind  
Wind Speed 6 mph (West)    
Max Wind Speed 14 mph    
Max Gust Speed 20 mph    
Visibility 10 miles    
Events Rain    
Averages and records for this station are not official NWS values.
T = Trace of Precipitation, MM = Missing Value Source: NWS Daily Summary

Daily Weather History Graph

Daily Weather History Graph

Search for Another Location

Airport or City:

Trip Planner

Search our weather history database for the weather conditions in past years. The results will help you decide how hot, cold, wet, or windy it might be!

Date:

Astronomy

Oct. 22, 2013 Rise Set
Actual Time 7:51 AM EDT 6:42 PM EDT
Civil Twilight 7:23 AM EDT 7:09 PM EDT
Nautical Twilight 6:51 AM EDT 7:41 PM EDT
Astronomical Twilight 6:20 AM EDT 8:12 PM EDT
Moon 9:21 PM EDT (10/22) 11:18 AM EDT (10/22)
Length of Visible Light 11h 46m
Length of Day
10h 51m
Waning Gibbous, 87% of the Moon is Illuminated
Oct 22
Waning Gibbous
Oct 26
Last Quarter
Nov 3
New
Nov 10
First Quarter
Nov 17
Full

Hourly Weather History & Observations

Time (EDT) Temp. Windchill Dew Point Humidity Pressure Visibility Wind Dir Wind Speed Gust Speed Precip Events Conditions
12:14 AM 42.8 °F 37.5 °F 41.0 °F 93% 29.93 in 10.0 mi WNW 9.2 mph 17.3 mph N/A   Drizzle
12:34 AM 42.8 °F 38.0 °F 41.0 °F 93% 29.92 in 10.0 mi WNW 8.1 mph - N/A Rain Rain
12:53 AM 42.8 °F 39.3 °F 41.0 °F 93% 29.93 in 10.0 mi West 5.8 mph - N/A   Light Drizzle
1:14 AM 42.8 °F 38.6 °F 41.0 °F 93% 29.93 in 10.0 mi WNW 6.9 mph - N/A   Overcast
1:34 AM 42.8 °F 38.6 °F 39.2 °F 87% 29.93 in 10.0 mi WNW 6.9 mph - N/A   Overcast
1:53 AM 42.8 °F 39.3 °F 39.2 °F 87% 29.94 in 10.0 mi West 5.8 mph - N/A   Overcast
2:14 AM 41.0 °F 33.5 °F 35.6 °F 81% 29.95 in 10.0 mi NW 13.8 mph 19.6 mph N/A   Overcast
2:34 AM 41.0 °F 35.2 °F 35.6 °F 81% 29.95 in 10.0 mi WNW 9.2 mph - N/A   Overcast
2:53 AM 39.2 °F 33.0 °F 33.8 °F 81% 29.96 in 10.0 mi West 9.2 mph - N/A   Mostly Cloudy
3:14 AM 37.4 °F 32.1 °F 32.0 °F 81% 29.96 in 10.0 mi West 6.9 mph - N/A   Clear
3:34 AM 37.4 °F 31.4 °F 32.0 °F 81% 29.96 in 10.0 mi West 8.1 mph - N/A   Clear
3:53 AM 35.6 °F 29.9 °F 32.0 °F 87% 29.97 in 10.0 mi West 6.9 mph - N/A   Clear
4:14 AM 33.8 °F 29.6 °F 30.2 °F 87% 29.97 in 10.0 mi West 4.6 mph - N/A   Clear
4:33 AM 33.8 °F 29.6 °F 30.2 °F 87% 29.97 in 10.0 mi West 4.6 mph - N/A   Clear
4:54 AM 33.8 °F 29.6 °F 30.2 °F 87% 29.97 in 10.0 mi West 4.6 mph - N/A   Clear
5:14 AM 32.0 °F 26.4 °F 30.2 °F 93% 29.98 in 10.0 mi West 5.8 mph - N/A   Clear
5:33 AM 33.8 °F 29.6 °F 28.4 °F 81% 29.98 in 10.0 mi WSW 4.6 mph - N/A   Clear
5:54 AM 33.8 °F 30.8 °F 30.2 °F 87% 29.98 in 10.0 mi West 3.5 mph - N/A   Clear
6:14 AM 32.0 °F - 30.2 °F 93% 29.98 in 10.0 mi Calm Calm - N/A   Clear
6:33 AM 32.0 °F 28.7 °F 28.4 °F 87% 29.99 in 10.0 mi WSW 3.5 mph - N/A   Clear
6:54 AM 32.0 °F 28.7 °F 28.4 °F 87% 29.99 in 10.0 mi West 3.5 mph - N/A   Clear
7:14 AM 32.0 °F - 28.4 °F 87% 29.99 in 10.0 mi Calm Calm - N/A   Clear
7:33 AM 32.0 °F - 30.2 °F 93% 29.99 in 10.0 mi Calm Calm - N/A   Clear
7:54 AM 32.0 °F 28.7 °F 28.4 °F 87% 30.00 in 10.0 mi WSW 3.5 mph - N/A   Clear
8:14 AM 32.0 °F 28.7 °F 30.2 °F 93% 30.00 in 10.0 mi WSW 3.5 mph - N/A   Clear
8:33 AM 32.0 °F 27.5 °F 30.2 °F 93% 30.00 in 10.0 mi WSW 4.6 mph - N/A   Clear
8:54 AM 33.8 °F 29.6 °F 30.2 °F 87% 30.01 in 10.0 mi West 4.6 mph - N/A   Clear
9:14 AM 35.6 °F 30.7 °F 30.2 °F 81% 30.01 in 10.0 mi West 5.8 mph - N/A   Clear
9:33 AM 37.4 °F 32.1 °F 30.2 °F 75% 30.02 in 10.0 mi West 6.9 mph - N/A   Clear
9:54 AM 39.2 °F 33.6 °F 30.2 °F 70% 30.02 in 10.0 mi West 8.1 mph - N/A   Clear
10:14 AM 41.0 °F 36.4 °F 28.4 °F 61% 30.02 in 10.0 mi West 6.9 mph - N/A   Clear
10:33 AM 42.8 °F 40.1 °F 28.4 °F 57% 30.02 in 10.0 mi West 4.6 mph - N/A   Clear
10:54 AM 42.8 °F 38.0 °F 28.4 °F 57% 30.02 in 10.0 mi West 8.1 mph - N/A   Clear
11:14 AM 44.6 °F 41.4 °F 28.4 °F 53% 30.01 in 10.0 mi WSW 5.8 mph - N/A   Clear
11:33 AM 44.6 °F 39.7 °F 28.4 °F 53% 30.01 in 10.0 mi WNW 9.2 mph - N/A   Clear
11:54 AM 46.4 °F 42.9 °F 26.6 °F 46% 30.00 in 10.0 mi West 6.9 mph - N/A   Clear
12:14 PM 46.4 °F 42.4 °F 24.8 °F 43% 30.00 in 10.0 mi West 8.1 mph - N/A   Clear
12:34 PM 46.4 °F 42.9 °F 26.6 °F 46% 30.00 in 10.0 mi West 6.9 mph - N/A   Clear
12:54 PM 46.4 °F 41.9 °F 23.0 °F 40% 29.99 in 10.0 mi West 9.2 mph - N/A   Clear
1:14 PM 48.2 °F - 24.8 °F 40% 29.97 in 10.0 mi SSW 4.6 mph - N/A   Clear
1:34 PM 46.4 °F 42.4 °F 24.8 °F 43% 29.97 in 10.0 mi WSW 8.1 mph - N/A   Clear
1:54 PM 50.0 °F - 23.0 °F 35% 29.96 in 10.0 mi WNW 6.9 mph - N/A   Clear
2:14 PM 50.0 °F - 23.0 °F 35% 29.95 in 10.0 mi WSW 4.6 mph - N/A   Clear
2:34 PM 50.0 °F - 23.0 °F 35% 29.94 in 10.0 mi WSW 6.9 mph - N/A   Clear
2:54 PM 50.0 °F - 23.0 °F 35% 29.93 in 10.0 mi SSW 6.9 mph - N/A   Clear
3:13 PM 50.0 °F - 23.0 °F 35% 29.93 in 10.0 mi West 3.5 mph - N/A   Clear
3:34 PM 50.0 °F - 23.0 °F 35% 29.92 in 10.0 mi West 4.6 mph - N/A   Clear
3:54 PM 50.0 °F - 26.6 °F 40% 29.92 in 10.0 mi WSW 5.8 mph - N/A   Clear
4:13 PM 50.0 °F - 24.8 °F 37% 29.91 in 10.0 mi West 5.8 mph - N/A   Clear
4:34 PM 50.0 °F - 23.0 °F 35% 29.91 in 10.0 mi West 3.5 mph - N/A   Clear
4:54 PM 50.0 °F - 23.0 °F 35% 29.91 in 10.0 mi WSW 4.6 mph - N/A   Clear
5:13 PM 50.0 °F - 23.0 °F 35% 29.90 in 10.0 mi Calm Calm - N/A   Clear
5:34 PM 46.4 °F 45.2 °F 21.2 °F 37% 29.90 in 10.0 mi WSW 3.5 mph - N/A   Scattered Clouds
5:54 PM 46.4 °F - 24.8 °F 43% 29.90 in 10.0 mi Calm Calm - N/A   Overcast
6:13 PM 44.6 °F - 26.6 °F 49% 29.90 in 10.0 mi Calm Calm - N/A   Overcast
6:34 PM 44.6 °F - 28.4 °F 53% 29.91 in 10.0 mi Calm Calm - N/A   Overcast
6:54 PM 44.6 °F - 30.2 °F 57% 29.90 in 10.0 mi Calm Calm - N/A   Overcast
7:13 PM 42.8 °F - 32.0 °F 66% 29.89 in 10.0 mi Calm Calm - N/A   Overcast
7:34 PM 42.8 °F - 33.8 °F 70% 29.90 in 10.0 mi Calm Calm - N/A   Overcast
7:54 PM 42.8 °F - 32.0 °F 66% 29.90 in 10.0 mi Calm Calm - N/A   Overcast
8:14 PM 44.6 °F 43.1 °F 23.0 °F 43% 29.90 in 10.0 mi SE 3.5 mph - N/A   Overcast
8:34 PM 44.6 °F - 28.4 °F 53% 29.90 in 10.0 mi Calm Calm - N/A   Overcast
8:54 PM 44.6 °F 43.1 °F 26.6 °F 49% 29.90 in 10.0 mi SSW 3.5 mph - N/A   Light Drizzle
9:14 PM 42.8 °F 40.1 °F 30.2 °F 61% 29.91 in 10.0 mi West 4.6 mph - N/A Rain Rain
9:34 PM 41.0 °F 39.0 °F 30.2 °F 65% 29.91 in 10.0 mi SSW 3.5 mph - N/A   Drizzle
9:54 PM 41.0 °F 39.0 °F 32.0 °F 70% 29.92 in 10.0 mi SW 3.5 mph - N/A   Drizzle
10:14 PM 39.2 °F - 33.8 °F 81% 29.91 in 10.0 mi Calm Calm - N/A Rain Rain
10:34 PM 39.2 °F - 33.8 °F 81% 29.91 in 10.0 mi Calm Calm - N/A   Drizzle
10:54 PM 39.2 °F - 35.6 °F 87% 29.91 in 10.0 mi Calm Calm - N/A   Drizzle
11:14 PM 39.2 °F - 35.6 °F 87% 29.91 in 10.0 mi Calm Calm - N/A   Drizzle
11:34 PM 37.4 °F 31.4 °F 33.8 °F 87% 29.90 in 10.0 mi North 8.1 mph - N/A   Drizzle
11:54 PM 37.4 °F 33.8 °F 33.8 °F 87% 29.90 in 10.0 mi North 4.6 mph - N/A   Light Drizzle